DECAYED

STARLINK-2305, 47989 (Decayed)

Orbit data source: Space-Track

STARLINK-2305, 47989 was a payload satellite owned by SpaceX/Seattle (US) in LEO that was launched on Wed, 24 Mar 2021 UTC via an FALCON 9 launch vehicle from the Air Force Eastern Test Range (AFETR). Payload-class satellites include a variety of spacecraft equipped with specific instruments for various scientific and technological missions. These include communications satellites like Starlink; space stations such as the ISS; scientific satellites like the Hubble; Earth observation satellites from companies like Planet Labs, Umbra, and HawkEye 360; GPS; miniature CubeSats for education and research; and military/defense satellites.

Not visible in the next 10 days
Identifier
47989, 2021-024N
Orbit
Decayed
Country
Flag of USUS
Related business
Manufacturer
SpaceX/Seattle
Mission
Decayed Commercial Communications
Bus & Motor
STARLINK, Unknown motor
Mass
260 kg wet, ~248 kg dry
Launch date (UTC)
2021-03-24 (5 years ago)
Launch vehicle
FALCON 9
Launch site
Air Force Eastern Test Range (AFETR)
Object type
Payload
Rocket body
Debris
Shape & HBR
Box + 1 Pan, 10.1 m
Radar Cross Section
13.562 m², Large (>1 m²)

Expand to show TLE details & history
Last TLE update: 10 months ago

TLE from 10 months ago
0 STARLINK-2305
1 47989U 21024N   25043.74940892  .16386124  12521-4  56636-3 0  9998
2 47989  53.0388 159.7404 0003490 306.0647 172.5567 16.44472738217041
Epoch: 2025-02-12T17:59Z
TLE epoch observation values (Epoch: 2025-02-12T17:59:08.930Z)
Latitude
44.68396°
Longitude
-120.80933°
Altitude
160.757 km
Speed
7.814 km/s
True Right ascension
19h 28m 03s
True Declination
44° 29' 47"
Sunlit
Object was in daylight at epoch
Visualization orbit readout
Latitude
Unknown
Longitude
Unknown
Altitude
Unknown
Speed
Unknown
Apparent Right ascension
Unknown
Apparent Declination
Unknown
Sunlit
N/A
Visualization observer readout
Local Sidereal Time
17:04:31
Azimuth
Unknown
Elevation
Unknown
Doppler factor
Unknown
Orbital elements
Apogee altitude
156.5 km
Perigee altitude
151.941 km
Semi-major axis
6,532.358 km
Eccentricity
0.00035
Inclination
53.0388°
RAAN
159.7404°
Arg. of periapsis
306.0647°
True anomaly
172.56188°
Mean anomaly
172.5567°
Eccentric anomaly
172.55929°
Mean motion
4.11091 °/min
Orbital period
87.57 mins
BSTAR
0.00056636
Loading maneuver chart data...
Computing Atmospheric mass density...

Documentation

Showing up to 5 results
|